AAL5454 KMIA-KTPA

Flight info

Callsign AAL5454
Flight time N/A
Altitude 21000
Route BNGOS4 COREA BLFRG3
Aircraft A319/M-C/D

Departure

Time 2026-05-06 22:15
Airport Miami International Airport (KMIA)

Arrival

Time N/A
Airport Tampa International Airport (KTPA)
Time Latitude Longitude Altitude Speed Heading
2026-05-06 22:05 25.79821 -80.28214 17 ft 0 kts 181°
2026-05-06 22:07 25.79822 -80.28214 17 ft 0 kts 181°
2026-05-06 22:07 25.79835 -80.28214 20 ft 3 kts 181°
2026-05-06 22:07 25.79855 -80.28213 19 ft 2 kts 181°
2026-05-06 22:08 25.79872 -80.28212 19 ft 3 kts 197°
2026-05-06 22:08 25.79887 -80.28203 19 ft 3 kts 240°
2026-05-06 22:08 25.79893 -80.28185 18 ft 2 kts 266°
2026-05-06 22:08 25.79893 -80.28179 18 ft 0 kts 267°
2026-05-06 22:09 25.79893 -80.28186 18 ft 3 kts 267°
2026-05-06 22:09 25.79891 -80.28225 20 ft 8 kts 267°
2026-05-06 22:09 25.79899 -80.28302 19 ft 10 kts 306°
2026-05-06 22:10 25.79959 -80.28317 19 ft 9 kts 358°
2026-05-06 22:10 25.80017 -80.28327 19 ft 8 kts 330°
2026-05-06 22:10 25.80034 -80.28391 19 ft 10 kts 267°
2026-05-06 22:10 25.80028 -80.28480 20 ft 13 kts 267°
2026-05-06 22:11 25.80025 -80.28580 23 ft 13 kts 268°
2026-05-06 22:11 25.80022 -80.28687 28 ft 15 kts 267°
2026-05-06 22:11 25.80017 -80.28814 27 ft 19 kts 267°
2026-05-06 22:11 25.80009 -80.28976 24 ft 23 kts 266°
2026-05-06 22:12 25.80001 -80.29160 26 ft 24 kts 267°
2026-05-06 22:12 25.79993 -80.29344 22 ft 25 kts 268°
2026-05-06 22:12 25.79986 -80.29545 17 ft 26 kts 268°
2026-05-06 22:12 25.79977 -80.29744 18 ft 26 kts 267°
2026-05-06 22:13 25.79972 -80.29942 15 ft 22 kts 276°
2026-05-06 22:13 25.80000 -80.30051 16 ft 17 kts 287°
2026-05-06 22:13 25.80037 -80.30125 19 ft 8 kts 336°
2026-05-06 22:13 25.80074 -80.30090 18 ft 8 kts 81°
2026-05-06 22:14 25.80077 -80.30005 16 ft 21 kts 87°
2026-05-06 22:14 25.80098 -80.29515 19 ft 105 kts 87°
2026-05-06 22:14 25.80145 -80.28440 55 ft 167 kts 86°
2026-05-06 22:14 25.80204 -80.27079 548 ft 184 kts 86°
2026-05-06 22:15 25.80283 -80.25603 1272 ft 197 kts 88°
2026-05-06 22:15 25.80355 -80.24059 2150 ft 205 kts 88°
2026-05-06 22:15 25.80417 -80.22561 2960 ft 211 kts 88°
2026-05-06 22:15 25.80480 -80.20909 3820 ft 218 kts 88°
2026-05-06 22:16 25.80541 -80.19193 4666 ft 228 kts 88°
2026-05-06 22:16 25.80859 -80.17446 5482 ft 237 kts 59°
2026-05-06 22:16 25.82049 -80.16198 6307 ft 244 kts 22°
2026-05-06 22:16 25.83740 -80.15876 7100 ft 253 kts
2026-05-06 22:17 25.85546 -80.15805 7894 ft 266 kts
2026-05-06 22:17 25.87442 -80.15755 8709 ft 278 kts
2026-05-06 22:17 25.89415 -80.15835 9560 ft 290 kts 351°
2026-05-06 22:17 25.91397 -80.16411 10406 ft 300 kts 343°
2026-05-06 22:18 25.93410 -80.17125 11217 ft 309 kts 343°
2026-05-06 22:18 25.95465 -80.17934 12064 ft 319 kts 337°
2026-05-06 22:18 25.97398 -80.19220 12936 ft 328 kts 325°
2026-05-06 22:18 25.99063 -80.20997 13831 ft 338 kts 312°
2026-05-06 22:19 26.00349 -80.23219 14630 ft 347 kts 298°
2026-05-06 22:19 26.01270 -80.25684 15379 ft 352 kts 295°
2026-05-06 22:19 26.02177 -80.28214 16139 ft 352 kts 294°
2026-05-06 22:19 26.03076 -80.30732 16914 ft 351 kts 294°
2026-05-06 22:20 26.03976 -80.33238 17707 ft 348 kts 294°
2026-05-06 22:20 26.04871 -80.35726 18499 ft 344 kts 294°
2026-05-06 22:20 26.05757 -80.38188 19129 ft 342 kts 294°
2026-05-06 22:20 26.06646 -80.40645 19771 ft 340 kts 294°
2026-05-06 22:21 26.07525 -80.43076 20421 ft 338 kts 294°
2026-05-06 22:21 26.08397 -80.45491 21138 ft 333 kts 294°
2026-05-06 22:21 26.09249 -80.47864 21914 ft 326 kts 294°
2026-05-06 22:21 26.10078 -80.50184 22667 ft 321 kts 294°
2026-05-06 22:22 26.10911 -80.52509 22959 ft 331 kts 294°
2026-05-06 22:22 26.11787 -80.54945 23050 ft 346 kts 294°
2026-05-06 22:22 26.12711 -80.57484 23054 ft 360 kts 296°
2026-05-06 22:22 26.13928 -80.59972 23055 ft 374 kts 304°
2026-05-06 22:23 26.15509 -80.62339 23052 ft 388 kts 308°
2026-05-06 22:23 26.17183 -80.64767 23052 ft 401 kts 308°
2026-05-06 22:23 26.18907 -80.67275 23052 ft 413 kts 308°
2026-05-06 22:23 26.20673 -80.69851 23046 ft 423 kts 308°
2026-05-06 22:24 26.22474 -80.72482 23044 ft 432 kts 308°
2026-05-06 22:24 26.24314 -80.75175 23043 ft 440 kts 308°
2026-05-06 22:24 26.26180 -80.77911 23043 ft 447 kts 308°
2026-05-06 22:24 26.28070 -80.80683 23047 ft 450 kts 307°
2026-05-06 22:25 26.29966 -80.83462 23040 ft 450 kts 307°
2026-05-06 22:25 26.31835 -80.86203 23043 ft 450 kts 307°
2026-05-06 22:25 26.33728 -80.88979 23043 ft 450 kts 307°
2026-05-06 22:25 26.35627 -80.91755 23038 ft 450 kts 308°
2026-05-06 22:26 26.37779 -80.94294 23040 ft 451 kts 316°
2026-05-06 22:26 26.40062 -80.96691 23038 ft 451 kts 316°
2026-05-06 22:26 26.42349 -80.99089 23038 ft 451 kts 316°
2026-05-06 22:26 26.44640 -81.01491 23038 ft 451 kts 316°
2026-05-06 22:27 26.46928 -81.03887 23043 ft 451 kts 316°
2026-05-06 22:27 26.49219 -81.06292 23037 ft 451 kts 316°
2026-05-06 22:27 26.51505 -81.08695 23038 ft 451 kts 316°
2026-05-06 22:27 26.53789 -81.11101 23038 ft 451 kts 316°
2026-05-06 22:28 26.56074 -81.13510 23037 ft 451 kts 316°
2026-05-06 22:28 26.58356 -81.15920 23038 ft 451 kts 316°
2026-05-06 22:28 26.60632 -81.18330 23050 ft 451 kts 316°
2026-05-06 22:28 26.62913 -81.20747 23042 ft 450 kts 315°
2026-05-06 22:29 26.64965 -81.23359 23046 ft 449 kts 308°
2026-05-06 22:29 26.66924 -81.26079 23042 ft 449 kts 308°
2026-05-06 22:29 26.68856 -81.28764 23039 ft 449 kts 308°
2026-05-06 22:29 26.70818 -81.31488 23044 ft 450 kts 308°
2026-05-06 22:30 26.72779 -81.34214 23040 ft 450 kts 308°
2026-05-06 22:30 26.74738 -81.36942 23044 ft 450 kts 308°
2026-05-06 22:30 26.76672 -81.39635 23043 ft 450 kts 308°
2026-05-06 22:30 26.78661 -81.42401 23043 ft 450 kts 308°
2026-05-06 22:31 26.80601 -81.45100 23043 ft 450 kts 308°
2026-05-06 22:31 26.82567 -81.47834 23039 ft 450 kts 308°
2026-05-06 22:31 26.84530 -81.50567 23041 ft 450 kts 308°
2026-05-06 22:31 26.86490 -81.53303 23040 ft 450 kts 308°
2026-05-06 22:32 26.88450 -81.56045 23041 ft 450 kts 308°
2026-05-06 22:32 26.90410 -81.58788 23041 ft 450 kts 308°
2026-05-06 22:32 26.92369 -81.61529 23049 ft 450 kts 308°
2026-05-06 22:32 26.94330 -81.64273 23037 ft 449 kts 308°
2026-05-06 22:33 26.96279 -81.67002 23055 ft 449 kts 308°
2026-05-06 22:33 26.98234 -81.69736 23058 ft 450 kts 308°
2026-05-06 22:33 27.00191 -81.72474 23060 ft 450 kts 308°
2026-05-06 22:33 27.02149 -81.75219 23062 ft 450 kts 308°
2026-05-06 22:34 27.04106 -81.77969 23064 ft 450 kts 307°
2026-05-06 22:34 27.06018 -81.80659 23068 ft 450 kts 307°
2026-05-06 22:34 27.08018 -81.83357 23051 ft 451 kts 313°
2026-05-06 22:34 27.10446 -81.85686 23072 ft 453 kts 321°
2026-05-06 22:35 27.12921 -81.87774 23050 ft 442 kts 321°
2026-05-06 22:35 27.15317 -81.89788 23064 ft 422 kts 321°
2026-05-06 22:35 27.17644 -81.91746 23036 ft 416 kts 321°
2026-05-06 22:35 27.19947 -81.93693 22681 ft 412 kts 321°
2026-05-06 22:36 27.22231 -81.95628 22251 ft 410 kts 321°
2026-05-06 22:36 27.24478 -81.97533 21834 ft 408 kts 321°
2026-05-06 22:36 27.26740 -81.99454 21419 ft 406 kts 321°
2026-05-06 22:36 27.28991 -82.01368 21007 ft 405 kts 321°
2026-05-06 22:37 27.31231 -82.03275 20601 ft 404 kts 321°
2026-05-06 22:37 27.33466 -82.05178 20201 ft 403 kts 321°
2026-05-06 22:37 27.35703 -82.07079 19802 ft 403 kts 321°
2026-05-06 22:37 27.37984 -82.09039 19415 ft 419 kts 321°
2026-05-06 22:38 27.40279 -82.11104 18983 ft 424 kts 320°
2026-05-06 22:38 27.42550 -82.13221 18492 ft 424 kts 319°
2026-05-06 22:38 27.44790 -82.15373 17949 ft 423 kts 318°
2026-05-06 22:38 27.46921 -82.17588 17325 ft 420 kts 316°
2026-05-06 22:39 27.49000 -82.19883 16718 ft 417 kts 315°
2026-05-06 22:39 27.51031 -82.22185 16076 ft 414 kts 315°
2026-05-06 22:39 27.53061 -82.24492 15410 ft 413 kts 315°
2026-05-06 22:39 27.55080 -82.26764 14775 ft 412 kts 315°
2026-05-06 22:40 27.57120 -82.29032 14126 ft 411 kts 316°
2026-05-06 22:40 27.59168 -82.31285 13357 ft 412 kts 316°
2026-05-06 22:40 27.61233 -82.33542 12557 ft 413 kts 316°
2026-05-06 22:40 27.63294 -82.35788 11787 ft 413 kts 316°
2026-05-06 22:41 27.67528 -82.40136 10406 ft 407 kts 327°
2026-05-06 22:41 27.70048 -82.41536 9711 ft 403 kts 341°
2026-05-06 22:41 27.72781 -82.42128 8930 ft 399 kts 357°
2026-05-06 22:42 27.75534 -82.42101 8224 ft 394 kts
2026-05-06 22:42 27.78251 -82.42029 7522 ft 389 kts
2026-05-06 22:42 27.80949 -82.41960 6842 ft 383 kts
2026-05-06 22:42 27.83560 -82.41896 6160 ft 377 kts
2026-05-06 22:43 27.86167 -82.41833 5456 ft 371 kts
2026-05-06 22:43 27.88723 -82.41772 4836 ft 363 kts
2026-05-06 22:43 27.91234 -82.41715 4171 ft 355 kts
2026-05-06 22:43 27.93648 -82.41663 3519 ft 340 kts
2026-05-06 22:44 27.95938 -82.41613 2868 ft 328 kts
2026-05-06 22:44 27.98152 -82.41560 2263 ft 317 kts
2026-05-06 22:44 28.00152 -82.41509 2048 ft 294 kts
2026-05-06 22:44 28.00639 -82.41496 2017 ft 288 kts
2026-05-06 22:45 28.02200 -82.41456 1981 ft 267 kts
2026-05-06 22:45 28.03962 -82.41410 1985 ft 241 kts 360°
2026-05-06 22:45 28.05548 -82.41459 1982 ft 214 kts 346°
2026-05-06 22:45 28.06832 -82.42028 1996 ft 186 kts 324°
2026-05-06 22:46 28.07701 -82.42953 1997 ft 161 kts 303°
2026-05-06 22:46 28.08188 -82.44031 1992 ft 151 kts 286°
2026-05-06 22:46 28.08355 -82.45178 1990 ft 148 kts 271°
2026-05-06 22:46 28.08422 -82.46321 1995 ft 148 kts 272°
2026-05-06 22:47 28.08495 -82.47500 1907 ft 150 kts 272°
2026-05-06 22:47 28.08565 -82.48636 1692 ft 144 kts 272°
2026-05-06 22:47 28.08634 -82.49770 1491 ft 144 kts 272°
2026-05-06 22:47 28.08702 -82.50896 1325 ft 141 kts 272°
2026-05-06 22:48 28.08473 -82.51942 1253 ft 141 kts 234°
2026-05-06 22:48 28.07649 -82.52507 1175 ft 145 kts 192°
2026-05-06 22:48 28.06628 -82.52449 1097 ft 148 kts 181°
2026-05-06 22:48 28.05610 -82.52455 1048 ft 145 kts 183°
2026-05-06 22:49 28.04613 -82.52537 1023 ft 142 kts 187°
2026-05-06 22:49 28.03627 -82.52623 932 ft 143 kts 186°
2026-05-06 22:49 28.02615 -82.52646 809 ft 147 kts 182°
2026-05-06 22:49 28.01594 -82.52653 701 ft 147 kts 186°
2026-05-06 22:50 28.00576 -82.52733 403 ft 146 kts 189°
2026-05-06 22:50 27.99569 -82.52782 213 ft 145 kts 185°
2026-05-06 22:50 27.98570 -82.52821 55 ft 143 kts 186°
2026-05-06 22:50 27.97627 -82.52861 39 ft 124 kts 179°